DW8052 Weather Reports


time (UTC)temp
C
wind
direction
speed
KPH
gust
KPH
rain 1hr
cm
rain 24hr
cm
rain mn
cm
humidity
%
barometer
mb
20260509201212 12 268 14.5 16.1 0.00 0.00 0.00 81 1027.4
20260509200711 12 274 14.5 16.1 0.00 0.00 0.00 81 1027.6
20260509200212 11 288 14.5 16.1 0.00 0.00 0.00 81 1027.2
20260509194712 12 306 14.5 19.3 0.00 0.00 0.00 78 1027.3
20260509194212 12 305 14.5 19.3 0.00 0.00 0.00 77 1027.1
20260509193712 12 309 14.5 16.1 0.00 0.00 0.00 76 1027.2
20260509193212 12 288 11.3 12.9 0.00 0.00 0.00 76 1027.2
20260509192712 12 287 11.3 12.9 0.00 0.00 0.00 76 1026.8
20260509192212 12 283 11.3 14.5 0.00 0.00 0.00 75 1026.9
20260509191712 12 296 11.3 12.9 0.00 0.00 0.00 75 1026.8
20260509191212 13 301 11.3 12.9 0.00 0.00 0.00 75 1026.7
20260509190212 13 308 8.0 9.7 0.00 0.00 0.00 73 1026.7
20260509185711 13 284 4.8 8.0 0.00 0.00 0.00 73 1026.5
20260509185212 13 249 3.2 9.7 0.00 0.00 0.00 74 1026.6
20260509184711 13 232 6.4 11.3 0.00 0.00 0.00 74 1026.6
20260509184212 13 245 9.7 12.9 0.00 0.00 0.00 74 1026.4
20260509183712 13 261 11.3 19.3 0.00 0.00 0.00 74 1026.4
20260509183212 13 254 16.1 19.3 0.00 0.00 0.00 73 1026.2
20260509182712 13 258 11.3 16.1 0.00 0.00 0.00 73 1026.1
20260509182212 13 267 14.5 19.3 0.00 0.00 0.00 74 1026.1
20260509180712 13 267 11.3 16.1 0.00 0.00 0.00 73 1026.1
20260509180212 13 269 14.5 16.1 0.00 0.00 0.00 73 1026.1
20260509175711 13 267 12.9 19.3 0.00 0.00 0.00 73 1026.0
20260509175211 13 266 19.3 20.9 0.00 0.00 0.00 74 1026.0
20260509174712 13 274 19.3 22.5 0.00 0.00 0.00 73 1025.8
20260509174211 13 272 14.5 19.3 0.00 0.00 0.00 73 1026.0
20260509173711 13 273 14.5 19.3 0.00 0.00 0.00 73 1025.9
20260509173212 13 267 16.1 19.3 0.00 0.00 0.00 72 1025.9
20260509172712 13 260 14.5 19.3 0.00 0.00 0.00 72 1026.2
20260509172211 14 271 14.5 16.1 0.00 0.00 0.00 71 1026.3
20260509171712 14 270 11.3 14.5 0.00 0.00 0.00 71 1026.2
20260509171212 14 266 11.3 12.9 0.00 0.00 0.00 72 1026.0
20260509170712 14 258 9.7 12.9 0.00 0.00 0.00 72 1026.1
20260509170212 14 253 11.3 12.9 0.00 0.00 0.00 72 1026.1
20260509165711 14 251 11.3 14.5 0.00 0.00 0.00 72 1026.2
20260509165211 14 250 12.9 14.5 0.00 0.00 0.00 73 1025.9
20260509164211 14 241 11.3 12.9 0.00 0.00 0.00 73 1026.1
20260509163711 14 245 11.3 12.9 0.00 0.00 0.00 72 1026.1
20260509162711 14 240 11.3 14.5 0.00 0.00 0.00 72 1026.1
20260509161711 14 236 12.9 14.5 0.00 0.00 0.00 72 1026.2
20260509160711 15 239 12.9 14.5 0.00 0.00 0.00 71 1026.2
20260509155711 15 235 12.9 14.5 0.00 0.00 0.00 71 1026.3
20260509155212 15 226 12.9 14.5 0.00 0.00 0.00 73 1026.4
20260509154212 14 225 14.5 14.5 0.00 0.00 0.00 75 1026.3
20260509153212 14 235 12.9 14.5 0.00 0.00 0.00 74 1026.4
20260509152711 14 237 12.9 16.1 0.00 0.00 0.00 74 1026.3
20260509152211 14 239 12.9 14.5 0.00 0.00 0.00 74 1026.2
20260509151712 14 238 12.9 14.5 0.00 0.00 0.00 74 1026.4
20260509151211 14 235 12.9 14.5 0.00 0.00 0.00 74 1026.2
20260509150711 14 238 12.9 14.5 0.00 0.00 0.00 74 1026.3
20260509145211 14 235 12.9 14.5 0.00 0.00 0.00 74 1026.2
20260509144712 14 232 12.9 16.1 0.00 0.00 0.00 75 1026.2
20260509144212 14 233 14.5 16.1 0.00 0.00 0.00 75 1026.3
20260509143711 14 235 12.9 14.5 0.00 0.00 0.00 75 1026.4
20260509143211 14 238 12.9 14.5 0.00 0.00 0.00 75 1026.3
20260509142711 13 239 12.9 16.1 0.00 0.00 0.00 75 1026.3
20260509141712 13 242 12.9 14.5 0.00 0.00 0.00 75 1026.5
20260509141211 13 247 12.9 14.5 0.00 0.00 0.00 75 1026.3
20260509140712 13 248 14.5 16.1 0.00 0.00 0.00 75 1026.2
20260509140211 13 245 14.5 16.1 0.00 0.00 0.00 75 1026.2
20260509135712 13 247 14.5 14.5 0.00 0.00 0.00 75 1026.5
20260509134711 14 247 14.5 16.1 0.00 0.00 0.00 75 1026.3
20260509133712 14 243 11.3 14.5 0.00 0.00 0.00 75 1026.3
20260509132711 13 247 11.3 14.5 0.00 0.00 0.00 75 1026.3
20260509132211 14 251 11.3 12.9 0.00 0.00 0.00 74 1026.4
20260509131711 14 248 11.3 14.5 0.00 0.00 0.00 74 1026.3
20260509131211 14 248 11.3 14.5 0.00 0.00 0.00 74 1026.5
20260509130711 14 250 11.3 16.1 0.00 0.00 0.00 74 1026.6
20260509130211 14 248 12.9 14.5 0.00 0.00 0.00 74 1026.4
20260509125711 14 250 12.9 14.5 0.00 0.00 0.00 73 1026.5
20260509125211 14 251 12.9 16.1 0.00 0.00 0.00 73 1026.4
20260509124711 14 248 14.5 16.1 0.00 0.00 0.00 73 1026.5
20260509124211 14 250 12.9 14.5 0.00 0.00 0.00 73 1026.4
20260509123711 14 257 11.3 12.9 0.00 0.00 0.00 72 1026.6
20260509123211 14 259 11.3 16.1 0.00 0.00 0.00 72 1026.6
20260509122711 14 254 14.5 19.3 0.00 0.00 0.00 71 1026.5
20260509121211 15 250 12.9 16.1 0.00 0.00 0.00 71 1026.8
20260509115711 15 246 14.5 19.3 0.00 0.00 0.00 70 1026.4
20260509115211 15 248 11.3 12.9 0.00 0.00 0.00 70 1026.7
20260509114711 15 251 11.3 14.5 0.00 0.00 0.00 70 1026.6
20260509113711 15 250 12.9 16.1 0.00 0.00 0.00 69 1026.4
20260509112211 15 254 12.9 12.9 0.00 0.00 0.00 68 1026.5
20260509111211 16 255 11.3 12.9 0.00 0.00 0.00 67 1026.3
20260509110711 16 259 9.7 12.9 0.00 0.00 0.00 66 1026.6
20260509104711 17 224 9.7 11.3 0.00 0.00 0.00 64 1026.2
20260509104211 17 191 9.7 12.9 0.00 0.00 0.00 64 1026.3
20260509103712 17 199 11.3 14.5 0.00 0.00 0.00 63 1026.1
20260509103211 17 196 11.3 14.5 0.00 0.00 0.00 63 1026.3
20260509102711 17 187 12.9 14.5 0.00 0.00 0.00 63 1026.0
20260509102211 17 196 11.3 14.5 0.00 0.00 0.00 63 1026.1
20260509101711 17 189 11.3 14.5 0.00 0.00 0.00 63 1025.9
20260509100711 17 192 9.7 12.9 0.00 0.00 0.00 63 1026.0
20260509100211 17 193 9.7 12.9 0.00 0.00 0.00 64 1026.2
20260509095211 17 194 9.7 14.5 0.00 0.00 0.00 63 1025.7
20260509094711 17 194 11.3 14.5 0.00 0.00 0.00 63 1025.7
20260509094211 17 188 9.7 12.9 0.00 0.00 0.00 63 1025.8
20260509093711 17 195 11.3 14.5 0.00 0.00 0.00 61 1025.7
20260509093210 17 181 11.3 16.1 0.00 0.00 0.00 61 1025.6
20260509092211 17 183 11.3 14.5 0.00 0.00 0.00 61 1025.6
20260509091711 17 188 11.3 14.5 0.00 0.00 0.00 61 1025.6
20260509091210 17 182 11.3 14.5 0.00 0.00 0.00 62 1025.6
20260509090710 17 182 9.7 12.9 0.00 0.00 0.00 62 1025.4
20260509090211 17 184 8.0 9.7 0.00 0.00 0.00 62 1025.5
20260509085710 17 180 8.0 9.7 0.00 0.00 0.00 62 1025.4
20260509085211 17 172 4.8 8.0 0.00 0.00 0.00 62 1025.3
20260509084711 17 172 4.8 11.3 0.00 0.00 0.00 61 1025.3
20260509084211 17 174 9.7 12.9 0.00 0.00 0.00 61 1025.4
20260509083710 17 177 9.7 11.3 0.00 0.00 0.00 62 1025.2
20260509083211 17 167 9.7 12.9 0.00 0.00 0.00 63 1025.1
20260509082711 17 157 11.3 14.5 0.00 0.00 0.00 62 1025.0
20260509082211 17 160 11.3 14.5 0.00 0.00 0.00 61 1025.4
20260509081711 17 158 11.3 14.5 0.00 0.00 0.00 61 1024.9
20260509081210 17 162 9.7 16.1 0.00 0.00 0.00 62 1024.9
20260509080711 17 157 11.3 14.5 0.00 0.00 0.00 61 1025.0
20260509080211 17 162 9.7 12.9 0.00 0.00 0.00 61 1024.7
20260509075711 17 167 8.0 11.3 0.00 0.00 0.00 62 1024.9
20260509075211 17 160 9.7 14.5 0.00 0.00 0.00 62 1024.9
20260509074711 17 160 8.0 16.1 0.00 0.00 0.00 61 1024.5
20260509073711 17 148 9.7 16.1 0.00 0.00 0.00 61 1024.5
20260509073210 17 159 9.7 12.9 0.00 0.00 0.00 60 1024.5
20260509072710 17 151 9.7 12.9 0.00 0.00 0.00 60 1024.6
20260509071710 18 152 9.7 14.5 0.00 0.00 0.00 59 1024.3
20260509071211 18 150 11.3 16.1 0.00 0.00 0.00 59 1024.3
20260509070711 18 147 9.7 12.9 0.00 0.00 0.00 59 1024.3
20260509070210 18 148 8.0 12.9 0.00 0.00 0.00 57 1024.4
20260509065710 18 160 11.3 16.1 0.00 0.00 0.00 57 1024.1
20260509065211 18 153 9.7 14.5 0.00 0.00 0.00 57 1024.1
20260509064710 18 125 8.0 14.5 0.00 0.00 0.00 56 1024.2
20260509063711 18 159 11.3 19.3 0.00 0.00 0.00 55 1024.0
20260509063210 18 154 14.5 19.3 0.00 0.00 0.00 54 1024.0
20260509062710 19 150 16.1 20.9 0.00 0.00 0.00 54 1023.9
20260509062211 19 155 14.5 19.3 0.00 0.00 0.00 53 1023.9
20260509061711 19 148 8.0 12.9 0.00 0.00 0.00 54 1023.9
20260509061210 19 131 11.3 19.3 0.00 0.00 0.00 52 1023.8
20260509060711 19 155 11.3 20.9 0.00 0.00 0.00 51 1023.8
20260509060211 19 164 14.5 20.9 0.00 0.00 0.00 50 1023.9
20260509055210 19 155 9.7 19.3 0.00 0.00 0.00 52 1023.6
20260509054211 19 128 11.3 24.1 0.00 0.00 0.00 52 1023.4
20260509053711 19 143 17.7 24.1 0.00 0.00 0.00 51 1023.5
20260509053210 19 127 11.3 19.3 0.00 0.00 0.00 51 1023.5
20260509052710 19 159 9.7 20.9 0.00 0.00 0.00 53 1023.4
20260509052210 19 133 16.1 22.5 0.00 0.00 0.00 51 1023.5
20260509051711 19 157 14.5 20.9 0.00 0.00 0.00 52 1023.6
20260509050710 19 146 16.1 22.5 0.00 0.00 0.00 52 1023.3
20260509050210 19 155 11.3 20.9 0.00 0.00 0.00 51 1023.8
20260509045710 19 149 17.7 25.7 0.00 0.00 0.00 51 1023.4
20260509045209 19 136 19.3 22.5 0.00 0.00 0.00 51 1023.5
20260509044710 19 157 16.1 22.5 0.00 0.00 0.00 51 1023.3
20260509044210 19 177 16.1 24.1 0.00 0.00 0.00 51 1023.6
20260509043210 19 144 16.1 22.5 0.00 0.00 0.00 50 1023.2
20260509042710 19 167 16.1 22.5 0.00 0.00 0.00 50 1023.2
20260509042210 19 167 11.3 24.1 0.00 0.00 0.00 49 1023.3
20260509041710 20 112 14.5 22.5 0.00 0.00 0.00 49 1023.2
20260509041210 20 164 14.5 27.4 0.00 0.00 0.00 48 1023.4
20260509040711 20 144 14.5 20.9 0.00 0.00 0.00 48 1023.1
20260509040210 20 136 17.7 25.7 0.00 0.00 0.00 48 1023.2
20260509035710 20 145 14.5 22.5 0.00 0.00 0.00 49 1023.2
20260509035210 20 158 14.5 20.9 0.00 0.00 0.00 48 1023.2
20260509034710 20 153 16.1 25.7 0.00 0.00 0.00 49 1023.3
20260509034210 20 173 16.1 25.7 0.00 0.00 0.00 49 1023.3
20260509033710 20 155 12.9 22.5 0.00 0.00 0.00 49 1023.2
20260509033210 20 174 19.3 25.7 0.00 0.00 0.00 47 1023.4
20260509032710 20 148 11.3 32.2 0.00 0.00 0.00 49 1023.4
20260509031710 20 142 16.1 24.1 0.00 0.00 0.00 48 1023.4
20260509031210 20 148 16.1 25.7 0.00 0.00 0.00 48 1023.5
20260509030710 20 166 19.3 27.4 0.00 0.00 0.00 48 1023.6
20260509030210 20 137 17.7 29.0 0.00 0.00 0.00 49 1023.6
20260509025710 20 158 12.9 24.1 0.00 0.00 0.00 47 1023.5
20260509025210 20 132 19.3 29.0 0.00 0.00 0.00 48 1024.0
20260509024710 20 197 16.1 27.4 0.00 0.00 0.00 46 1023.8
20260509024210 20 151 20.9 29.0 0.00 0.00 0.00 45 1023.8
20260509023210 21 189 22.5 29.0 0.00 0.00 0.00 44 1024.0
20260509022710 21 148 16.1 27.4 0.00 0.00 0.00 45 1024.1
20260509022210 21 165 22.5 32.2 0.00 0.00 0.00 45 1024.0
20260509020710 21 179 20.9 32.2 0.00 0.00 0.00 44 1024.2
20260509015710 21 162 11.3 24.1 0.00 0.00 0.00 43 1024.3
20260509015210 21 180 17.7 27.4 0.00 0.00 0.00 43 1024.5
20260509014710 21 176 22.5 32.2 0.00 0.00 0.00 43 1024.4
20260509014210 21 189 16.1 32.2 0.00 0.00 0.00 44 1024.6
20260509013210 21 139 9.7 19.3 0.00 0.00 0.00 44 1024.7
20260509012710 21 193 20.9 27.4 0.00 0.00 0.00 42 1024.6
20260509012210 21 190 16.1 32.2 0.00 0.00 0.00 42 1024.9
20260509011710 21 165 12.9 22.5 0.00 0.00 0.00 42 1024.8
20260509011209 21 175 16.1 27.4 0.00 0.00 0.00 42 1024.7
20260509010710 21 195 16.1 22.5 0.00 0.00 0.00 42 1024.7
20260509010210 21 202 11.3 16.1 0.00 0.00 0.00 42 1024.8
20260509005710 21 194 4.8 19.3 0.00 0.00 0.00 43 1025.0
20260509005210 21 208 9.7 19.3 0.00 0.00 0.00 43 1024.8
20260509004709 21 200 11.3 24.1 0.00 0.00 0.00 42 1024.9
20260509004210 21 193 19.3 24.1 0.00 0.00 0.00 42 1024.9
20260509003710 21 179 11.3 25.7 0.00 0.00 0.00 42 1025.1
20260509002710 21 181 11.3 19.3 0.00 0.00 0.00 41 1024.8
20260509002209 21 191 9.7 19.3 0.00 0.00 0.00 41 1024.8
20260509001710 21 202 9.7 19.3 0.00 0.00 0.00 41 1024.8
20260509001210 21 200 6.4 16.1 0.00 0.00 0.00 43 1025.1
20260509000710 21 198 9.7 16.1 0.00 0.00 0.00 42 1025.2
20260509000211 21 189 6.4 16.1 0.00 0.00 0.00 43 1025.0
20260508235209 20 244 6.4 11.3 0.00 0.00 0.00 44 1025.1
20260508234709 20 245 8.0 12.9 0.00 0.00 0.00 45 1025.3
20260508234210 20 246 4.8 8.0 0.00 0.00 0.00 46 1024.9
20260508233710 20 240 4.8 9.7 0.00 0.00 0.00 45 1025.0
20260508233209 20 247 4.8 12.9 0.00 0.00 0.00 47 1025.1
20260508232710 19 275 3.2 9.7 0.00 0.00 0.00 48 1025.0
20260508232209 19 261 4.8 8.0 0.00 0.00 0.00 49 1025.0
20260508231709 19 282 4.8 8.0 0.00 0.00 0.00 48 1025.1
20260508230210 17 256 4.8 9.7 0.00 0.00 0.00 53 1025.1
20260508225210 16 267 8.0 16.1 0.00 0.00 0.00 56 1025.1
20260508224710 16 275 9.7 14.5 0.00 0.00 0.00 57 1025.1
20260508224210 16 268 11.3 16.1 0.00 0.00 0.00 58 1024.9
20260508223710 15 281 9.7 16.1 0.00 0.00 0.00 60 1024.9
20260508223210 15 279 11.3 14.5 0.00 0.00 0.00 61 1024.9
20260508222710 15 285 9.7 14.5 0.00 0.00 0.00 63 1024.9
20260508222210 14 283 9.7 16.1 0.00 0.00 0.00 63 1024.8
20260508221710 14 288 11.3 16.1 0.00 0.00 0.00 63 1024.9
20260508221210 14 281 9.7 14.5 0.00 0.00 0.00 65 1024.8
20260508220709 13 282 11.3 16.1 0.00 0.00 0.00 65 1024.6
20260508220210 13 286 12.9 16.1 0.00 0.00 0.00 66 1024.5
20260508215709 13 281 12.9 16.1 0.00 0.00 0.00 67 1024.6
20260508215210 13 280 12.9 16.1 0.00 0.00 0.00 67 1024.5
20260508213210 13 290 14.5 19.3 0.00 0.00 0.00 69 1024.4
20260508212709 13 287 12.9 16.1 0.00 0.00 0.00 68 1024.3
20260508212210 12 287 14.5 19.3 0.00 0.00 0.00 69 1024.5
20260508211709 12 280 16.1 20.9 0.00 0.00 0.00 69 1024.4
20260508210209 12 275 14.5 19.3 0.00 0.00 0.00 69 1024.1
20260508205710 12 276 16.1 19.3 0.00 0.00 0.00 69 1024.1
20260508205209 12 282 16.1 19.3 0.00 0.00 0.00 69 1023.9
20260508204709 12 289 16.1 20.9 0.00 0.00 0.00 68 1023.8
20260508204209 12 293 16.1 19.3 0.00 0.00 0.00 67 1023.8
20260508203209 13 298 14.5 19.3 0.00 0.00 0.00 64 1023.5
20260508202709 13 291 9.7 12.9 0.00 0.00 0.00 62 1023.6
20260508202209 14 269 9.7 12.9 0.00 0.00 0.00 61 1023.6
20260508201709 14 265 11.3 14.5 0.00 0.00 0.00 61 1023.2